PDT,Max TemperatureF,Mean TemperatureF,Min TemperatureF,Max Dew PointF,MeanDew PointF,Min DewpointF,Max Humidity, Mean Humidity, Min Humidity, Max Sea Level PressureIn, Mean Sea Level PressureIn, Min Sea Level PressureIn, Max VisibilityMiles, Mean VisibilityMiles, Min VisibilityMiles, Max Wind SpeedMPH, Mean Wind SpeedMPH, Max Gust SpeedMPH,PrecipitationIn, CloudCover, Events, WindDirDegrees
2013-10-1,64,54,43,45,42,38,86,68,49,30.19,30.12,30.06,10,10,10,20,4,24,T,5,,22
2013-10-2,61,49,37,43,38,30,92,62,32,30.20,30.14,30.10,10,10,10,15,3,20,0.01,4,,332
2013-10-3,63,53,42,41,38,34,89,63,36,30.37,30.30,30.20,10,10,10,7,1,12,0.00,3,,258
2013-10-4,72,54,35,40,37,31,92,57,22,30.45,30.36,30.27,10,8,0,9,1,24,0.00,1,Fog,12
2013-10-5,80,59,38,42,36,30,82,50,17,30.31,30.23,30.14,10,10,10,8,1,9,0.00,0,,180
2013-10-6,79,59,39,42,37,29,89,54,18,30.17,30.10,30.02,10,10,10,13,2,15,0.00,0,,244
2013-10-7,64,54,44,45,40,37,76,57,37,30.17,30.10,30.03,10,10,10,14,4,17,0.00,5,,13
2013-10-8,59,48,37,44,39,35,92,68,44,30.18,30.09,29.96,10,10,10,10,3,13,T,4,,326
2013-10-9,63,50,36,39,37,32,92,63,34,29.98,29.94,29.89,10,10,10,13,2,16,0.00,2,,315
2013-10-10,66,52,38,44,39,36,92,63,34,30.07,30.00,29.95,10,10,10,9,2,12,0.00,1,,279
2013-10-11,64,50,36,43,39,33,92,69,46,30.15,30.09,30.05,10,10,10,10,2,13,0.00,1,,335
2013-10-12,55,48,40,46,42,37,96,79,61,30.13,30.08,30.05,10,9,3,10,2,14,0.18,6,Rain,351
2013-10-13,63,52,41,43,40,37,96,68,39,30.25,30.18,30.12,10,8,0,8,1,13,0.00,5,Fog,350
2013-10-14,70,52,33,41,37,32,100,64,28,30.33,30.26,30.16,10,8,0,8,2,10,0.00,3,Fog,319
2013-10-15,75,55,34,38,34,28,92,56,19,30.27,30.18,30.08,10,10,9,10,1,14,0.00,0,,343
2013-10-16,72,53,34,39,34,29,85,54,22,30.17,30.12,30.07,10,10,9,8,1,9,0.00,0,,185
2013-10-17,73,54,35,44,38,32,89,59,29,30.22,30.14,30.06,10,10,9,9,1,12,0.00,0,,169
2013-10-18,77,57,37,44,40,35,92,60,27,30.18,30.11,30.03,10,10,7,8,1,9,0.00,0,,200
2013-10-19,77,57,37,43,39,34,86,55,23,30.18,30.12,30.06,10,10,10,7,0,8,0.00,0,,190
2013-10-20,75,57,38,45,40,35,85,57,29,30.16,30.09,30.00,10,10,10,8,1,9,0.00,0,,204
2013-10-21,79,59,38,44,40,35,85,55,25,30.11,30.03,29.94,10,10,9,8,1,10,0.00,0,,195
2013-10-22,79,59,39,43,40,36,89,57,25,30.09,30.02,29.93,10,10,10,7,1,,0.00,0,,166
2013-10-23,77,58,39,44,40,36,85,55,25,30.05,29.99,29.91,10,10,10,8,0,17,0.00,0,,200
2013-10-24,75,56,37,44,38,34,85,55,25,30.09,30.03,29.98,10,10,6,17,0,30,0.00,0,,200
2013-10-25,75,56,37,41,38,34,85,57,29,30.23,30.17,30.11,10,10,9,7,0,8,0.00,0,,205
2013-10-26,74,55,36,43,38,33,85,56,27,30.29,30.18,30.09,10,10,9,9,1,12,0.00,0,,180
2013-10-27,59,48,36,47,38,33,92,68,43,30.08,29.93,29.76,10,10,6,21,5,28,0.01,4,Rain,311
2013-10-28,56,47,38,40,39,35,92,72,51,29.87,29.75,29.70,10,10,10,10,3,13,0.00,6,,320
2013-10-29,61,47,33,38,34,31,92,65,37,30.07,29.98,29.88,10,10,9,7,1,8,0.00,2,,25
2013-10-30,64,51,37,40,37,34,85,62,39,30.22,30.15,30.07,10,10,10,8,1,10,0.00,4,,121
2013-10-31,68,54,40,43,39,36,85,61,37,30.30,30.24,30.18,10,10,9,8,2,10,0.00,4,,243